Regional Weather Roundup
Issued by NWS Burlington, VT

Home | Current Version | Previous Version | Text Only | Print | Product List | Glossary On
Versions: 1 2 3 4 5 6 7 8 9 10 11 12 13 14 15 16 17 18 19 20 21 22 23 24 25 26 27 28 29 30 31 32 33 34 35 36 37 38 39 40 41 42 43 44 45 46 47 48 49 50
261
ASUS41 KBTV 130530
RWRBTV
VERMONT REGIONAL WEATHER ROUNDUP
NATIONAL WEATHER SERVICE BURLINGTON VT
1200 AM EST SAT FEB 13 2016

NOTE: "FAIR" INDICATES FEW OR NO CLOUDS BELOW 12,000 FEET WITH NO
SIGNIFICANT WEATHER AND/OR OBSTRUCTIONS TO VISIBILITY.

* THESE REPORTS ARE NOT UNDER NWS QUALITY CONTROL AND/OR DO NOT
  REPORT WEATHER SUCH AS PRECIPITATION AND FOG.

VTZ001>019-130600-
_____VERMONT_____


CITY           SKY/WX    TMP DP  RH WIND       PRES   REMARKS
BURLINGTON     MOCLDY    20   3  48 S14G21    29.78F WCI   7
MONTPELIER     CLOUDY    11   0  61 S6        29.79F WCI   1
MORRISVILLE    CLOUDY    17   3  54 VRB5      29.77F WCI  10
ST. JOHNSBURY*   N/A      8   0  69 MISG      29.79F
LYNDONVILLE*   CLOUDY    12   2  64 SE5       29.77F WCI   4
RUTLAND*       CLOUDY    10   0  61 E7        29.80F WCI   0
SPRINGFIELD    CLOUDY     4   0  83 CALM      29.85S
HIGHGATE*      CLOUDY    19   4  52 S9G17     29.77S WCI   8
NEWPORT*       FAIR      13   1  56 S7        29.75S WCI   3
BENNINGTON     CLOUDY    15   3  59 S6        29.82F WCI   6
SUTTON*          N/A     10 N/A N/A MISG        N/A
GALLUP MILLS*    N/A      1 N/A N/A MISG        N/A
UNION VILLAGE*   N/A      3 N/A N/A MISG        N/A
MT. MANSFIELD*   N/A      3 N/A N/A NW28G40     N/A  WCI -21

_____LAKE CHAMPLAIN_____


CITY           SKY/WX    TMP DP  RH WIND       PRES   REMARKS

$$

NYZ007-026>031-035-052-083-130600-
_____NORTHERN NEW YORK_____


CITY           SKY/WX    TMP DP  RH WIND       PRES   REMARKS
PLATTSBURGH    PTCLDY    10   3  73 S3        29.77F
SARANAC LAKE   LGT SNOW  12   7  80 SW9       29.66S WCI   0
MASSENA        CLOUDY    12   2  64 W17G23    29.86R WCI  -5
OGDENSBURG*    CLEAR     10   3  72 N13       29.88R WCI  -5
WATERTOWN      CLOUDY    13   4  67 N9        29.87R WCI   1
ALBANY         CLOUDY    20   4  50 S7        29.86F WCI  11
GLENS FALLS    PTCLDY    15   1  53 S6        29.85S WCI   6

$$
NHZ002-005-011-130600-
_____NEW HAMPSHIRE_____


CITY           SKY/WX    TMP DP  RH WIND       PRES   REMARKS
LEBANON        MOCLDY     8   1  73 CALM      29.82F
MT WASHINGTON  PTCLDY    -8 -13  77 SW22G28     N/A  WCI -33
PLYMOUTH       CLOUDY     1  -2  88 CALM      29.86S
WHITEFIELD     PTCLDY     0  -5  79 CALM      29.78S

$$

_____REGIONAL QUEBEC LOCATIONS_____


CITY           SKY/WX    TMP DP  RH WIND       PRES   REMARKS
MONTREAL       LGT SNOW  10   7  85 NW8       29.79R WCI  -1
QUEBEC CITY    LGT SNOW   9   5  85 E8        29.79F WCI  -4
SHERBROOKE     CLOUDY    12   3  67 SE3       29.74F

_____REGIONAL ONTARIO LOCATIONS_____


CITY           SKY/WX    TMP DP  RH WIND       PRES   REMARKS
OTTAWA         PTCLDY     3  -4  72 NW16G25   29.88R WCI -16

______KEY______
VSB  - VISIBILITY IN MILES
WCI  - WIND CHILL INDEX
HX   - HEAT INDEX
$$
NNNN




USA.gov is the U.S. government's official web portal to all federal, state and local government web resources and services.